When you browse on this site, cookies collect data to enhance your experience and personalize the content and advertising you see.
Visit our Privacy Policy to learn more. By continuing to use the site, you agree to this use of cookies and data.
  • In Hungary
  • List of Countries
  • For 7 days
  • Water Temperature
  • Satellite Maps
  • Weather Map
  • News
  • Weather Widgets
  • user-avatar
    Login

    Hourly Weather Kokchetaw

    Today, 24 January, Thursday

    Time Temperature Precipitation Wind Pressure Humidity
    00:00 -12°C° 0.2 mm 6 mps 741 mmHg 91%
    01:00 -11°C° 0.2 mm 6 mps 741 mmHg 90%
    02:00 -11°C° 0.2 mm 6 mps 740 mmHg 90%
    03:00 -11°C° 0.1 mm 6 mps 740 mmHg 90%
    04:00 -11°C° 0.1 mm 6 mps 740 mmHg 89%
    05:00 -11°C° 0 mm 6 mps 740 mmHg 89%
    06:00 -11°C° 0.1 mm 6 mps 740 mmHg 90%
    07:00 -11°C° 0.1 mm 5 mps 741 mmHg 90%
    08:00 -11°C° 0.1 mm 5 mps 741 mmHg 91%
    09:00 -14°C° 0.1 mm 6 mps 741 mmHg 92%
    10:00 -16°C° 0.1 mm 6 mps 742 mmHg 93%
    11:00 -18°C° 0.1 mm 6 mps 742 mmHg 93%
    12:00 -21°C° 0 mm 6 mps 743 mmHg 93%
    13:00 -22°C° 0 mm 6 mps 744 mmHg 93%
    14:00 -23°C° 0 mm 6 mps 744 mmHg 93%
    15:00 -26°C° 0 mm 6 mps 745 mmHg 93%
    16:00 -27°C° 0 mm 6 mps 746 mmHg 94%
    17:00 -28°C° 0 mm 6 mps 747 mmHg 94%
    18:00 -28°C° 0 mm 6 mps 748 mmHg 94%
    19:00 -29°C° 0 mm 6 mps 749 mmHg 94%
    20:00 -30°C° 0 mm 6 mps 749 mmHg 95%
    21:00 -30°C° 0 mm 6 mps 750 mmHg 95%
    22:00 -29°C° 0 mm 5 mps 750 mmHg 95%
    23:00 -31°C° 0 mm 5 mps 750 mmHg 95%

    Tomorrow, 25 January, Friday

    Time Temperature Precipitation Wind Pressure Humidity
    00:00 -31°C° 0 mm 5 mps 751 mmHg 95%
    01:00 -31°C° 0 mm 5 mps 751 mmHg 95%
    02:00 -31°C° 0 mm 5 mps 752 mmHg 95%
    03:00 -31°C° 0 mm 5 mps 752 mmHg 95%
    04:00 -30°C° 0 mm 4 mps 752 mmHg 96%
    05:00 -31°C° 0 mm 4 mps 753 mmHg 96%
    06:00 -30°C° 0 mm 4 mps 753 mmHg 95%
    07:00 -30°C° 0 mm 4 mps 753 mmHg 94%
    08:00 -29°C° 0 mm 3 mps 754 mmHg 93%
    09:00 -26°C° 0 mm 3 mps 753 mmHg 91%
    10:00 -25°C° 0 mm 3 mps 753 mmHg 89%
    11:00 -23°C° 0 mm 3 mps 753 mmHg 88%
    12:00 -23°C° 0 mm 4 mps 753 mmHg 86%
    13:00 -22°C° 0 mm 4 mps 752 mmHg 84%
    14:00 -20°C° 0 mm 5 mps 752 mmHg 82%
    15:00 -20°C° 0 mm 5 mps 751 mmHg 81%
    16:00 -21°C° 0 mm 6 mps 751 mmHg 80%
    17:00 -21°C° 0 mm 7 mps 750 mmHg 78%
    18:00 -21°C° 0 mm 7 mps 749 mmHg 77%
    19:00 -21°C° 0 mm 8 mps 748 mmHg 76%
    20:00 -21°C° 0 mm 8 mps 747 mmHg 75%
    21:00 -19°C° 0 mm 8 mps 746 mmHg 74%
    22:00 -20°C° 0 mm 9 mps 744 mmHg 73%
    23:00 -19°C° 0 mm 9 mps 743 mmHg 72%

    Day after tomorrow, 26 January, Saturday

    Time Temperature Precipitation Wind Pressure Humidity
    00:00 -19°C° 0.2 mm 9 mps 743 mmHg 77%
    01:00 -17°C° 0.2 mm 8 mps 742 mmHg 81%
    02:00 -16°C° 0.2 mm 8 mps 741 mmHg 86%
    03:00 -15°C° 0.1 mm 8 mps 741 mmHg 86%
    04:00 -13°C° 0.1 mm 8 mps 740 mmHg 87%
    05:00 -12°C° 0.1 mm 7 mps 740 mmHg 87%
    06:00 -12°C° 0 mm 7 mps 740 mmHg 87%
    07:00 -12°C° 0 mm 7 mps 740 mmHg 87%
    08:00 -11°C° 0 mm 7 mps 740 mmHg 87%
    09:00 -13°C° 0 mm 7 mps 740 mmHg 86%
    10:00 -14°C° 0 mm 7 mps 741 mmHg 85%
    11:00 -16°C° 0 mm 8 mps 741 mmHg 84%
    12:00 -17°C° 0 mm 8 mps 742 mmHg 84%
    13:00 -19°C° 0 mm 7 mps 742 mmHg 84%
    14:00 -21°C° 0 mm 7 mps 743 mmHg 85%
    15:00 -23°C° 0 mm 7 mps 743 mmHg 87%
    16:00 -23°C° 0 mm 6 mps 744 mmHg 88%
    17:00 -24°C° 0 mm 6 mps 745 mmHg 90%
    18:00 -26°C° 0 mm 6 mps 745 mmHg 91%
    19:00 -27°C° 0 mm 6 mps 746 mmHg 92%
    20:00 -28°C° 0 mm 6 mps 746 mmHg 93%
    21:00 -28°C° 0 mm 6 mps 747 mmHg 93%
    22:00 -28°C° 0 mm 5 mps 747 mmHg 94%
    23:00 -29°C° 0 mm 5 mps 748 mmHg 94%

    27 January, Sunday

    Time Temperature Precipitation Wind Pressure Humidity
    00:00 -29°C° 0 mm 5 mps 748 mmHg 95%
    01:00 -29°C° 0 mm 5 mps 749 mmHg 95%
    02:00 -31°C° 0 mm 5 mps 749 mmHg 95%
    03:00 -30°C° 0 mm 4 mps 750 mmHg 96%
    04:00 -30°C° 0 mm 4 mps 750 mmHg 96%
    05:00 -31°C° 0 mm 4 mps 751 mmHg 96%
    06:00 -31°C° 0 mm 4 mps 751 mmHg 96%
    07:00 -32°C° 0 mm 4 mps 752 mmHg 97%
    08:00 -32°C° 0 mm 4 mps 752 mmHg 97%
    09:00 -30°C° 0 mm 3 mps 753 mmHg 96%
    10:00 -30°C° 0 mm 3 mps 753 mmHg 96%
    11:00 -29°C° 0 mm 3 mps 754 mmHg 95%
    12:00 -27°C° 0 mm 3 mps 754 mmHg 95%
    13:00 -26°C° 0 mm 2 mps 755 mmHg 94%
    14:00 -25°C° 0 mm 2 mps 755 mmHg 94%
    15:00 -26°C° 0 mm 2 mps 755 mmHg 94%
    16:00 -24°C° 0 mm 1 mps 755 mmHg 95%
    17:00 -25°C° 0 mm 1 mps 756 mmHg 95%
    18:00 -27°C° 0 mm 1 mps 756 mmHg 95%
    19:00 -26°C° 0 mm 0 mps 756 mmHg 95%
    20:00 -27°C° 0 mm 0 mps 756 mmHg 95%
    21:00 -27°C° 0 mm 0 mps 756 mmHg 93%
    22:00 -27°C° 0 mm 1 mps 756 mmHg 92%
    23:00 -27°C° 0 mm 1 mps 756 mmHg 91%

    28 January, Monday

    Time Temperature Precipitation Wind Pressure Humidity
    00:00 -27°C° 0 mm 1 mps 756 mmHg 89%
    01:00 -27°C° 0 mm 1 mps 756 mmHg 88%
    02:00 -28°C° 0 mm 2 mps 756 mmHg 86%
    03:00 -28°C° 0 mm 2 mps 756 mmHg 86%
    04:00 -28°C° 0 mm 2 mps 756 mmHg 85%
    05:00 -28°C° 0 mm 2 mps 756 mmHg 85%
    06:00 -28°C° 0 mm 2 mps 756 mmHg 85%
    07:00 -30°C° 0 mm 3 mps 756 mmHg 86%
    08:00 -29°C° 0 mm 3 mps 756 mmHg 86%
    09:00 -27°C° 0 mm 3 mps 756 mmHg 86%
    10:00 -27°C° 0 mm 4 mps 756 mmHg 86%
    11:00 -25°C° 0 mm 4 mps 755 mmHg 86%
    12:00 -24°C° 0 mm 4 mps 755 mmHg 85%
    13:00 -23°C° 0 mm 4 mps 755 mmHg 85%
    14:00 -22°C° 0 mm 4 mps 754 mmHg 84%
    15:00 -23°C° 0 mm 4 mps 754 mmHg 85%
    16:00 -24°C° 0 mm 4 mps 753 mmHg 86%
    17:00 -25°C° 0 mm 4 mps 753 mmHg 87%
    18:00 -25°C° 0 mm 4 mps 752 mmHg 86%
    19:00 -25°C° 0 mm 4 mps 752 mmHg 84%
    20:00 -27°C° 0 mm 5 mps 752 mmHg 83%
    21:00 -27°C° 0 mm 5 mps 751 mmHg 82%
    22:00 -27°C° 0 mm 5 mps 751 mmHg 81%
    23:00 -27°C° 0 mm 5 mps 750 mmHg 80%

    29 January, Tuesday

    Time Temperature Precipitation Wind Pressure Humidity
    00:00 -26°C° 0 mm 5 mps 750 mmHg 80%
    01:00 -26°C° 0 mm 5 mps 749 mmHg 79%
    02:00 -26°C° 0 mm 5 mps 749 mmHg 79%
    03:00 -27°C° 0 mm 5 mps 749 mmHg 79%
    04:00 -27°C° 0 mm 5 mps 748 mmHg 78%
    05:00 -27°C° 0 mm 5 mps 748 mmHg 78%
    06:00 -27°C° 0 mm 5 mps 748 mmHg 78%
    07:00 -27°C° 0 mm 5 mps 747 mmHg 77%
    08:00 -27°C° 0 mm 5 mps 747 mmHg 77%
    09:00 -27°C° 0 mm 6 mps 747 mmHg 76%
    10:00 -26°C° 0 mm 6 mps 746 mmHg 75%
    11:00 -24°C° 0 mm 6 mps 746 mmHg 74%
    12:00 -23°C° 0 mm 6 mps 746 mmHg 74%
    13:00 -24°C° 0 mm 7 mps 746 mmHg 74%
    14:00 -23°C° 0 mm 7 mps 746 mmHg 74%
    15:00 -24°C° 0 mm 7 mps 745 mmHg 75%
    16:00 -25°C° 0 mm 7 mps 745 mmHg 77%
    17:00 -25°C° 0 mm 7 mps 745 mmHg 78%
    18:00 -26°C° 0 mm 7 mps 745 mmHg 78%
    19:00 -26°C° 0 mm 7 mps 744 mmHg 78%
    20:00 -26°C° 0 mm 7 mps 744 mmHg 77%
    21:00 -26°C° 0 mm 7 mps 744 mmHg 76%
    22:00 -26°C° 0 mm 7 mps 744 mmHg 75%
    23:00 -26°C° 0 mm 7 mps 744 mmHg 73%
    Show more